Wind_Speed
14 14 15 12 10 12 13 13 12 11 12 12 12 12 13 14 13 9 9 13 9 14 17 14 15 20 16 5 8 5 6 9 8 8 5 4 6 2 3 3 3 3 3 16 36
12 13 15 15 10 11 13 15 14 11 11 12 12 12 14 15 14 10 13 15 21 9 13 12 16 20 5 6 7 10 9 8 5 6 5 5 3 8 5 1 3 4 7 21 20
14 13 15 16 9 11 13 14 15 13 11 12 11 13 14 13 4 3 7 10 5 6 12 14 8 8 8 3 11 8 9 4 5 2 1 6 4 2 12 1 4 9 15 16 13
15 13 14 14 11 11 12 13 13 13 10 11 10 12 16 2 3 1 5 8 8 3 8 10 5 5 6 7 3 7 9 11 3 4 2 6 7 4 2 5 4 5 7 13 11
14 13 13 13 14 12 13 10 12 11 8 9 10 11 6 2 6 4 2 8 8 5 5 5 4 6 8 5 8 5 12 9 8 5 3 3 3 6 6 6 8 6 5 4 7
14 12 13 12 13 12 12 8 12 11 9 8 8 9 1 3 3 2 3 7 7 4 7 7 3 4 4 3 19 3 8 11 7 3 4 3 3 5 6 4 8 7 6 6 7
11 12 12 12 11 12 11 9 12 11 9 8 6 5 3 9 3 2 1 6 6 5 6 9 6 6 4 2 15 4 7 7 9 4 4 5 4 5 4 3 8 6 4 5 6
11 11 11 11 11 11 11 11 13 11 9 7 4 3 5 6 5 7 6 5 2 4 5 7 5 4 3 4 4 5 4 5 3 5 5 4 5 3 4 8 6 5 4 3 4
11 10 9 10 11 11 12 13 14 10 6 5 4 3 7 2 3 7 8 4 4 5 7 4 3 3 3 4 4 4 5 8 1 5 1 4 4 5 7 5 4 4 4 5 4
11 8 8 9 9 11 12 13 5 4 1 2 6 2 5 2 2 5 5 3 1 4 3 2 2 2 2 5 10 9 5 4 6 7 4 7 9 5 4 7 8 7 6 6 6
10 8 7 7 8 9 10 2 2 2 1 5 3 3 3 2 6 7 2 2 2 2 2 2 3 4 3 10 4 10 9 8 10 10 5 7 8 7 4 3 5 7 8 7 7
10 8 6 6 7 5 3 2 2 1 2 7 5 4 8 7 4 6 2 1 3 3 4 4 4 5 7 14 12 9 12 6 7 12 5 6 11 10 5 5 6 9 8 9 7
11 7 5 4 4 2 4 4 1 1 1 2 4 2 1 5 3 3 2 1 0 5 5 5 4 7 4 3 13 9 12 9 8 6 2 7 5 14 6 4 5 6 6 6 10
11 7 4 4 3 4 3 4 3 2 4 5 2 2 2 3 2 2 0 1 3 4 7 1 7 9 4 1 4 5 4 5 16 10 4 3 2 7 13 12 6 9 7 7 8
11 9 7 10 5 4 3 3 2 1 4 4 5 2 5 3 4 1 1 1 5 4 4 3 10 8 5 2 3 3 7 5 12 7 2 3 1 5 2 7 14 11 9 9 10
12 10 12 9 6 5 4 4 2 5 3 5 3 4 2 1 3 3 3 3 0 5 8 6 3 3 2 4 3 6 9 11 5 3 2 6 4 5 2 6 5 7 7 8 9
11 15 16 12 4 7 6 2 4 4 2 3 2 2 2 4 3 3 0 2 2 3 5 3 2 4 1 6 4 2 7 3 2 0 2 3 4 7 5 3 4 7 4 4 4
16 21 12 9 9 10 4 3 5 4 5 2 3 3 1 1 4 5 2 4 5 5 3 2 3 3 5 3 6 8 4 4 4 5 4 3 5 4 3 6 8 7 5 6 7
24 14 7 11 11 8 3 2 7 6 4 4 1 1 1 2 3 1 5 2 2 1 4 4 4 3 2 3 1 3 3 3 6 4 4 3 2 2 6 6 7 8 8 7 7
16 10 6 14 11 3 1 3 4 4 3 2 3 4 2 2 2 2 3 3 2 2 1 2 5 5 5 1 3 5 4 2 3 3 3 2 2 3 4 4 4 6 7 5 4
15 4 8 12 7 1 3 3 3 3 3 3 4 1 2 4 3 2 2 3 3 4 3 3 4 4 3 5 3 5 3 5 4 2 3 2 4 3 7 7 7 5 5 5 6
7 3 12 11 2 3 3 3 5 5 2 2 3 2 3 3 3 3 3 1 2 1 3 2 4 4 2 4 3 1 1 3 4 1 2 3 4 3 4 3 7 5 6 5 6
4 3 7 3 3 3 2 4 3 4 4 5 4 3 1 3 5 6 2 4 2 4 2 1 3 3 6 5 2 2 2 3 4 3 1 3 3 6 8 8 6 7 7 6 7
4 4 2 2 1 3 4 3 4 4 4 4 3 1 0 4 5 4 3 2 3 2 1 3 3 4 5 5 3 3 4 3 4 3 3 3 4 6 4 6 6 7 6 6 6
3 4 5 7 5 4 4 6 4 4 1 3 1 2 2 3 4 3 3 3 5 5 3 3 3 3 3 4 2 3 4 6 6 4 4 3 4 3 3 6 4 4 6 8 9
4 4 2 4 3 6 4 7 7 3 4 3 2 1 4 4 3 6 4 2 2 3 2 3 1 3 4 6 6 2 2 3 2 3 2 4 3 2 3 4 5 6 7 7 8
4 2 4 6 5 5 5 7 7 7 2 2 8 5 6 2 2 3 5 4 4 5 2 3 3 3 1 4 4 4 3 1 1 3 1 5 3 2 3 4 3 6 6 6 8
Wind_Direction
316 322 316 321 313 318 327 316 309 316 315 325 329 329 332 325 310 286 245 248 257 267 256 266 271 240 219 203 198 193 200 217 186 163 188 259 138 314 72 89 76 105 135 155 165
309 314 317 312 307 310 315 325 312 302 307 311 318 322 322 326 309 259 290 278 283 232 211 273 270 217 208 198 180 221 187 218 227 166 197 200 147 136 103 81 57 109 100 146 176
304 305 316 316 305 311 309 322 312 311 299 310 315 321 319 322 305 260 341 329 354 204 232 266 302 225 202 197 196 209 178 180 248 32 241 177 120 73 125 255 221 185 156 162 153
298 308 314 318 306 310 310 319 315 302 301 315 319 322 324 286 265 272 348 358 359 220 250 304 267 236 178 194 170 167 163 210 292 29 78 169 132 84 102 155 165 166 163 157 170
288 301 305 311 308 301 303 316 317 302 310 312 322 326 342 279 256 296 349 344 340 182 181 282 287 211 198 191 201 220 159 173 268 2 16 218 75 137 127 144 146 143 147 153 175
286 296 297 309 306 306 308 308 317 306 314 318 319 327 348 272 307 265 304 334 333 333 141 259 312 300 282 200 181 170 124 176 228 280 309 56 62 99 232 151 132 139 167 170 162
277 292 297 302 303 306 313 301 309 289 296 309 316 325 283 249 297 78 337 294 326 319 149 202 344 12 7 261 150 202 121 65 197 207 317 342 28 134 186 127 125 121 142 173 191
266 286 297 291 303 304 307 302 303 280 287 295 301 279 248 272 259 288 298 311 336 33 113 170 341 319 255 292 75 97 93 138 343 210 24 53 187 224 143 129 135 131 145 176 222
256 279 286 290 301 298 305 305 292 277 280 278 270 183 278 260 278 325 315 243 137 92 102 127 35 313 249 164 134 79 122 172 31 344 237 89 229 224 189 152 186 211 225 217 215
257 274 280 293 291 301 306 305 270 279 274 206 254 329 273 286 322 312 311 255 134 131 93 135 47 344 294 198 187 155 133 110 120 187 62 155 259 303 202 186 206 235 230 232 227
261 267 281 287 289 305 321 323 63 28 227 197 195 238 288 94 32 297 279 90 78 139 137 109 178 181 224 279 154 136 149 131 154 153 114 247 272 246 266 175 225 228 243 237 219
250 255 271 275 293 294 278 247 131 162 312 233 259 253 270 104 282 254 106 107 166 152 131 130 196 127 271 254 141 106 126 102 97 145 183 183 262 273 279 264 210 214 219 235 240
240 239 255 280 276 247 195 225 160 169 93 289 230 250 206 94 284 310 83 100 340 156 175 174 201 123 273 260 114 141 161 168 153 164 131 139 245 264 270 232 243 246 222 224 221
227 204 217 201 244 141 230 189 177 192 69 300 320 259 134 107 255 89 144 238 136 152 178 105 148 151 266 163 129 126 192 154 153 154 173 149 289 231 228 241 223 240 246 249 248
207 207 186 197 173 165 160 171 173 91 56 283 296 218 153 192 328 137 155 232 141 176 203 152 147 128 209 220 120 144 131 117 123 81 95 147 11 265 82 245 250 244 235 239 248
197 192 159 190 213 159 158 178 142 44 274 332 264 270 213 147 144 237 252 237 271 53 47 68 29 97 277 104 91 99 81 40 49 59 94 206 137 303 222 214 241 245 261 252 257
199 170 169 168 181 168 168 108 47 114 254 278 267 288 55 28 6 32 299 186 124 89 81 50 35 260 13 82 62 103 105 88 96 67 170 145 126 245 274 287 213 141 102 76 13
167 149 166 181 161 154 161 91 85 205 200 210 272 302 90 154 5 351 31 63 50 80 91 73 104 11 347 137 171 164 118 142 137 170 146 126 216 256 34 61 71 73 75 57 56
155 141 168 165 169 165 99 87 187 206 190 166 155 270 338 153 124 9 16 37 30 314 95 121 50 328 239 358 55 171 86 172 103 352 74 210 211 38 38 57 82 84 73 56 43
139 145 163 167 166 143 159 180 165 156 138 149 195 200 125 172 101 72 357 292 338 65 217 178 81 357 301 8 7 113 158 99 17 111 154 281 265 187 137 128 90 73 78 66 64
122 119 159 164 141 112 185 183 138 165 132 158 192 170 216 166 144 94 271 314 6 325 0 115 79 310 8 24 2 8 21 55 105 96 141 108 276 228 177 179 142 87 36 46 22
108 119 160 164 136 221 174 184 132 163 140 158 175 187 177 173 95 102 132 284 280 20 47 33 101 75 76 294 261 254 91 101 107 252 52 129 292 8 153 73 64 44 27 24 14
104 114 164 173 187 213 187 151 146 136 180 179 211 225 183 142 104 124 112 347 77 48 83 18 39 66 358 349 4 238 196 105 93 52 311 120 245 46 63 68 57 69 39 34 34
122 132 144 196 274 242 136 180 139 165 163 183 171 128 121 46 29 111 122 28 54 75 110 99 104 150 178 206 132 182 175 109 111 110 180 218 117 41 67 81 43 28 25 38 34
129 179 171 182 215 213 156 168 134 149 211 151 123 197 103 112 73 92 77 85 31 360 41 78 108 85 54 44 96 196 173 169 188 160 159 231 123 154 120 74 42 9 34 24 7
130 140 86 156 148 158 207 191 158 140 134 226 161 50 128 150 177 159 131 138 158 30 63 27 91 85 6 26 45 33 17 217 215 159 233 169 120 166 100 84 46 41 34 20 352
170 90 116 150 138 152 191 149 167 126 26 18 148 101 80 61 73 99 97 90 155 135 99 73 110 64 339 348 10 358 317 245 66 63 273 216 134 168 44 44 62 50 34 5 345
Height
824 821 819 816 815 814 812 811 808 806 805 803 801 799 796 793 791 788 786 781 780 779 781 779 779 782 785 784 785 783 793 791 785 785 774 766 771 768 767 773 773 775 776 775 782
820 819 817 814 812 811 809 806 806 804 802 800 798 796 794 791 788 784 780 780 777 776 778 778 779 778 782 779 780 780 783 787 774 768 769 768 766 768 774 780 779 776 779 781 787
819 816 815 812 810 809 807 804 803 801 801 798 796 794 793 790 788 781 780 778 777 776 777 778 769 775 775 775 772 770 774 774 773 767 765 767 770 766 776 785 778 775 775 780 786
816 812 812 810 808 806 804 802 800 799 797 797 794 792 789 789 790 778 779 777 776 776 777 776 771 771 769 772 771 768 767 772 770 769 770 770 768 774 773 777 772 775 776 775 784
811 810 808 807 806 803 801 799 798 797 795 795 792 791 788 788 782 777 777 777 777 777 777 777 771 765 765 766 772 768 765 771 772 775 774 771 773 774 778 775 775 776 777 779 783
808 806 805 802 802 800 799 796 796 795 794 792 791 790 789 791 778 777 776 776 777 776 775 777 775 772 769 766 772 762 763 769 774 780 779 776 776 772 779 775 776 775 776 779 783
803 802 801 800 798 798 796 794 793 793 792 791 790 790 789 785 777 777 776 775 775 774 774 776 775 771 770 766 761 769 774 775 780 785 782 780 783 784 777 776 777 777 778 778 781
799 797 798 797 795 794 792 791 791 790 789 789 789 789 786 778 776 776 776 776 774 774 774 776 776 775 773 769 764 769 776 783 788 781 779 786 791 783 779 780 783 781 781 781 780
794 792 794 793 793 792 790 788 788 788 787 787 788 787 784 777 776 775 774 776 775 777 776 776 777 777 771 769 772 777 783 784 797 790 786 790 792 783 780 780 783 784 784 784 784
791 789 789 789 790 790 788 786 785 786 785 786 787 791 781 777 776 775 774 774 774 776 777 778 781 779 772 770 767 773 787 795 801 795 791 797 791 783 782 782 784 785 785 785 785
789 789 787 787 786 787 787 786 788 787 785 783 781 781 777 777 777 775 774 773 774 776 779 780 781 776 778 771 765 768 780 786 792 789 794 799 793 791 783 783 787 789 787 785 785
785 786 785 784 785 785 786 786 783 784 784 779 778 776 774 777 780 774 774 775 776 775 781 782 778 778 782 771 758 762 771 782 786 787 794 796 791 786 784 782 783 786 786 785 782
782 781 783 781 784 783 784 783 782 782 785 778 776 774 774 777 779 774 775 776 775 777 778 776 772 775 776 764 761 772 772 778 784 786 790 797 802 791 783 780 779 779 780 780 780
777 775 780 781 785 781 782 781 782 782 805 786 776 774 774 776 777 774 774 776 777 776 772 767 770 773 773 763 763 775 768 769 774 784 792 788 800 793 780 780 781 780 779 779 778
769 774 774 779 779 780 781 781 781 782 831 782 777 771 772 776 775 772 774 772 774 774 774 772 768 771 776 767 764 768 768 774 777 789 790 794 804 791 784 784 776 772 777 777 775
767 770 771 778 778 778 779 781 783 808 829 796 775 772 770 770 774 775 772 773 766 771 766 770 771 776 771 765 765 768 781 789 791 797 800 794 804 794 787 780 776 774 773 773 771
765 766 770 775 775 776 779 781 805 820 791 788 776 768 771 773 767 771 769 768 769 776 773 775 780 775 769 771 770 775 782 803 802 804 800 796 806 795 776 771 769 771 772 771 770
762 762 770 773 774 776 779 785 816 788 791 772 770 768 772 771 771 773 771 770 764 767 781 773 775 774 775 777 780 777 780 800 797 806 800 796 804 788 779 778 776 775 776 776 776
762 764 770 772 774 776 782 794 790 789 771 769 770 774 772 768 772 772 773 770 765 763 774 778 777 773 773 770 771 776 788 778 800 804 810 802 788 782 783 782 781 780 780 781 778
756 765 769 772 773 776 780 767 770 768 767 768 774 770 772 769 769 773 774 766 764 763 765 771 781 781 775 769 769 771 774 790 800 808 797 800 790 792 785 784 782 783 784 784 782
752 767 769 772 773 779 781 764 763 766 765 766 771 767 765 769 768 772 778 767 764 764 762 767 777 786 782 787 787 781 782 785 792 801 805 803 797 782 785 786 785 784 784 784 783
750 767 768 771 775 770 766 757 756 764 764 767 769 768 765 763 767 773 770 769 763 764 768 768 781 793 790 785 783 780 779 785 812 803 816 824 802 782 784 787 791 793 791 786 785
750 762 769 770 768 766 753 752 754 761 764 767 766 763 763 762 771 767 769 766 763 767 770 768 787 820 803 791 783 782 778 779 787 799 804 815 804 789 791 795 795 796 795 793 791
748 759 767 769 767 762 755 754 754 754 756 758 759 762 760 762 763 766 770 766 766 769 767 770 787 794 804 791 786 788 782 782 791 812 800 799 794 796 799 799 801 800 797 796 796
739 751 748 758 763 763 755 756 755 755 754 755 758 761 761 768 767 771 769 772 772 772 770 776 795 798 785 783 782 782 782 785 791 790 793 787 793 798 798 802 802 803 800 799 797
736 744 748 755 755 763 755 756 755 756 756 757 759 759 762 766 767 773 769 772 773 775 775 783 807 795 810 787 787 785 784 785 787 790 788 792 797 799 800 802 804 806 804 804 803
731 733 736 748 755 757 750 747 752 755 759 758 759 767 770 771 769 768 770 773 773 776 781 787 802 815 810 803 792 799 790 786 785 788 789 792 798 800 803 807 807 811 809 809 806